RADUGA 10

Satellite information

Favourite Embed

Satellite Type and Status

PAYLOADIN ORBIT

Key statistics

Satellite RADUGA 10 at a glance.

Uptime

15915

Days in orbit

Revolutions

≈ 1.0

Per day

Orbit

OTHER

Other

Inclination

7.7

Latest

Satellite identification and parameters

Extended collection of information and parameters for RADUGA 10.

Object identification

Identified? True

Debris? False

Object name: RADUGA 10

International designator: 1981-102A

Object number (NORAD): 12897

Object ID (CCSDS): 12897

Country: COMMONWEALTH OF INDEPENDENT STATES (CIS)

Current information (Y/N): Y

RCS size: LARGE

Orbital parameters

Period: 1436.423 minutes

Inclination: 7.6582 deg

SMA: 42171.118 km

Apoapsis: 35807.882 km

Periapsis: 35778.084 km

RAAN: 298.3034 deg

Eccentricy: 0.0003533

Argument of periapsis: 223.9306 deg

Mean anomaly: 5.5258 deg

Mean motion: 1.0024901 rev/day

Mean motion (dot): -0.00000139 rev/day2

B* drag term: 0.0 1/REarth

Two-line elements (TLE)

Creation date: May 6, 2025, 3:54 a.m.

Reference frame: TEME

Reference center: EARTH

Epoch: May 5, 2025, 3:02 p.m. UTC

TLE line 0: 0 RADUGA 10

TLE line 1: 1 12897U 81102A 25125.62683796 -.00000139 00000-0 00000-0 0 9995

TLE line 2: 2 12897 7.6582 298.3034 0003533 223.9306 5.5258 1.00249010113259

Live tracking on map

Real-time ground track for satellite RADUGA 10.

In-orbit conjunctions

There are no conjunctions computed for RADUGA 10, at the moment. Check back to stay up to date, as we update our databases every day.

Go to all conjunctions

Associated space launch

Geostationary communications satellite for military and governmental puposes

RADUGA 10 was lifted into orbit during the mission ‘Proton-K/DM | Raduga 10’, on board a Proton-K/DM space rocket.

The launch took place on Oct. 9, 1981, 4:59 p.m. from 200/39 (200L).

For more information about the launch, click the button.

Launch to space Proton-K/DM | Raduga 10
Proton-K/DM | Raduga 10

Agency: N/A

Status: Launch Successful

Launch date: Oct. 9, 1981, 4:59 p.m. UTC

Rocket: Proton-K/DM

Launch pad: 200/39 (200L)

Location: Baikonur Cosmodrome, Republic of Kazakhstan

...

Latest news about this satellite

There are no fresh news available about this satellite. Check back as we update our databases every day.


Newsletter sign-up

Weekly statistics, charts and insights to help you stay on top of the space industry.